Weather Service Report


457 
ASUS44 KOUN 231300
RWROK 

WEATHER ROUNDUP FOR OKLAHOMA
NATIONAL WEATHER SERVICE NORMAN OK
700 AM CST THU NOV 23 2017

NOTE: "FAIR" INDICATES FEW OR NO CLOUDS BELOW 12,000 FEET WITH NO
      SIGNIFICANT WEATHER AND/OR OBSTRUCTIONS TO VISIBILITY.

OKZ001>007-009>012-014-015-017-231400-
NORTHWEST OKLAHOMA AND THE PANHANDLE
  
CITY           SKY/WX    TMP DP  RH WIND       PRES   REMARKS
GAGE           CLOUDY    35  28  75 SW6       30.11S WCI  30          
GUYMON         CLOUDY    51  37  58 NW12G18   30.16R                  
ENID/WOODRING  CLEAR     32  27  80 CALM      30.10R                  
$$

OKZ016-021>023-033>039-044-045-231400-
SOUTHWEST OKLAHOMA
  
CITY           SKY/WX    TMP DP  RH WIND       PRES   REMARKS
LAWTON/REGL    CLOUDY    30  26  85 CALM      30.15F                  
LAWTON/FT SILL CLOUDY    33  24  71 S5        30.12F WCI  28          
FREDERICK      CLOUDY    33  23  66 NE5       30.12S WCI  29          
CLINTON        CLOUDY    37  19  48 W9        30.13S WCI  30          
HOBART         CLOUDY    33  21  61 W7        30.14S WCI  27          
ALTUS AFB      CLOUDY    34  20  58 CALM      30.14R                  
$$

OKZ018>020-024>031-231400-
CENTRAL OKLAHOMA
  
CITY           SKY/WX    TMP DP  RH WIND       PRES   REMARKS
OKLAHOMA CITY  CLOUDY    33  22  63 S7        30.12S WCI  27          
OKC/WILEY POST CLEAR     39  23  52 SW9       30.12S WCI  33          
OKC/TINKER AFB CLOUDY    33  22  63 S9        30.12S WCI  26          
STILLWATER     CLEAR     32  23  69 S5        30.12S WCI  27          
GUTHRIE        CLEAR     34  22  61 S7        30.12S WCI  28          
$$

OKZ008-013-054>072-231400-
NORTHEAST OKLAHOMA
  
CITY           SKY/WX    TMP DP  RH WIND       PRES   REMARKS
TULSA          CLEAR     36  23  59 S9        30.15F WCI  29          
TULSA/JONES    CLEAR     30  24  78 CALM      30.16S                  
PONCA CITY     CLEAR     36  21  54 CALM      30.12R                  
BARTLESVILLE   CLEAR     27  23  85 CALM      30.14F                  
MUSKOGEE       CLOUDY    28  24  85 S5        30.19S WCI  23          
$$

OKZ032-040>043-046>053-073>077-231400-
SOUTH CENTRAL/SOUTHEAST OKLAHOMA
  
CITY           SKY/WX    TMP DP  RH WIND       PRES   REMARKS
MCALESTER      CLOUDY    29  25  85 CALM      30.18R                  
$$

  

Return to Home page


Western Regional Climate Center, wrcc@dri.edu